Zurück zum Katalog

CZ-3A DEB

AktivHEO
NORAD 35549·DEBRIS·🇨🇳 China

Gestartet Feb 2, 2007 von Xichang Satellite Launch Center

Loading…

Nächste Überflüge (nächste 24 Stunden)

TLE

AktuellSource: Space-Track

Epoche: Sep 8, 2026, 07:24 UTC

1 35549U 07003H   26251.30900778  .00134051  00000-0  14175-1 0  9999
2 35549  24.1115 321.0914 5060579 268.9906  35.3023  5.55298297176501

Verfolge CZ-3A DEB in Echtzeit mit AllMySat

Download on the App Store